Flag for Isle of Man Weather past 2 weeks in Douglas, Isle of Man

Now
52 °F

Broken clouds.


Feels Like: 47 °F
Forecast: 43 / 56 °F
Wind: 14 mph from West

Location: Isle Of Man / Ronaldsway Airport

Current Time: May 25, 2015 at 9:09:53 AM

Latest Report: May 25, 2015 at 8:20 AM


Visibility: N/A

Pressure: 30.09 "Hg

Humidity: 82%

Dew point: 46 °F

Location of DouglasLocation

Historic Weather in Douglas — Graph

°F

Douglas temperature yesterday

Maximum temperature yesterday: 55 °F (at 12:20 PM)
Minimum temperature yesterday: 50 °F (at 12:50 AM)
Average temperature yesterday: 53 °F

Past Weeks' High & Low Weather Summary

 TemperatureHumidityPressure
High59 °F (May 22, 4:20 PM)100% (May 10, 7:50 AM)30.30 "Hg (May 10, 7:50 AM)
Low41 °F (May 13, 4:50 AM)51% (May 16, 12:20 PM)29.45 "Hg (May 18, 6:50 PM)
Average51 °F79%30.01 "Hg
* Reported May 10 7:20 AM — May 25 7:50 AM, Douglas, Weather by CustomWeather, © 2015

Note: Actual official high and low records may vary slightly from our data, if they occured in-between our weather recording intervals... More about our weather records

Advertising

Douglas weather history for previous 24 hours

 ConditionsComfort  
Time TempWeatherWind HumidityBarometerVisibility
7:50 AM
Mon, May 25
50 °FDrizzle. Partly sunny.14 mph82%30.09 "HgN/A
7:20 AM50 °FBroken clouds.12 mph88%30.09 "HgN/A
6:50 AM50 °FPartly sunny.14 mph82%30.09 "HgN/A
6:20 AM50 °FBroken clouds.16 mph82%30.09 "HgN/A
5:50 AM50 °FPassing clouds.14 mph76%30.09 "HgN/A
5:20 AM50 °FPassing clouds.14 mph76%30.09 "HgN/A
4:50 AM50 °FPassing clouds.14 mph76%30.09 "HgN/A
3:50 AM50 °FPassing clouds.13 mph76%30.09 "HgN/A
1:50 AM50 °FPassing clouds.14 mph76%30.09 "HgN/A
11:50 PM
Sun, May 24
52 °FPassing clouds.10 mph67%30.12 "HgN/A
10:50 PM50 °FPassing clouds.5 mph76%30.12 "HgN/A
9:50 PM50 °FPartly sunny.5 mph76%30.12 "HgN/A
8:50 PM52 °FPartly sunny.5 mph72%30.12 "HgN/A
8:20 PM52 °FPartly sunny.3 mph72%30.12 "HgN/A
7:50 PM52 °FPartly sunny.5 mph72%30.12 "HgN/A
7:20 PM54 °FPartly sunny.5 mph67%30.12 "HgN/A
6:50 PM54 °FPartly sunny.7 mph67%30.12 "HgN/A
6:20 PM54 °FPartly sunny.8 mph67%30.12 "HgN/A
5:50 PM55 °FPartly sunny.8 mph59%30.12 "HgN/A
5:20 PM54 °FPartly sunny.9 mph67%30.09 "HgN/A
4:50 PM55 °FScattered clouds.9 mph63%30.09 "HgN/A
4:20 PM55 °FPartly sunny.12 mph59%30.12 "HgN/A
3:50 PM55 °FPartly sunny.12 mph59%30.12 "HgN/A
3:20 PM55 °FPartly sunny.14 mph59%30.12 "HgN/A
2:50 PM55 °FPartly sunny.12 mph59%30.12 "HgN/A
2:20 PM55 °FPartly sunny.12 mph63%30.12 "HgN/A
1:50 PM55 °FPartly sunny.13 mph59%30.12 "HgN/A
1:20 PM55 °FPartly sunny.13 mph63%30.12 "HgN/A
12:50 PM55 °FPartly sunny.13 mph63%30.12 "HgN/A
12:20 PM55 °FScattered clouds.15 mph63%30.09 "HgN/A
11:50 AM54 °FScattered clouds.15 mph67%30.12 "HgN/A
11:20 AM54 °FScattered clouds.13 mph67%30.12 "HgN/A
10:50 AM54 °FPassing clouds.12 mph67%30.09 "HgN/A
10:20 AM52 °FScattered clouds.8 mph67%30.09 "HgN/A
9:50 AM52 °FPartly sunny.10 mph72%30.09 "HgN/A
9:20 AM50 °FPartly sunny.9 mph76%30.09 "HgN/A
Weather by CustomWeather, © 2015

See weather overviewHow to use our weather pages